Year,Month,Day,Hour,Minute,Value (Times are PST for temperature in C)
2023,05,14,00,00,17.10
2023,05,14,00,01,17.10
2023,05,14,00,02,17.10
2023,05,14,00,03,17.10
2023,05,14,00,04,17.10
2023,05,14,00,05,17.10
2023,05,14,00,06,17.20
2023,05,14,00,07,17.20
2023,05,14,00,08,17.30
2023,05,14,00,09,17.30
2023,05,14,00,10,17.30
2023,05,14,00,11,17.30
2023,05,14,00,12,17.30
2023,05,14,00,13,17.30
2023,05,14,00,14,17.20
2023,05,14,00,15,17.20
2023,05,14,00,16,17.10
2023,05,14,00,17,17.10
2023,05,14,00,18,17.10
2023,05,14,00,19,17.00
2023,05,14,00,20,17.00
2023,05,14,00,21,16.90
2023,05,14,00,22,16.90
2023,05,14,00,23,16.90
2023,05,14,00,24,16.90
2023,05,14,00,25,16.90
2023,05,14,00,26,16.90
2023,05,14,00,27,17.00
2023,05,14,00,28,17.00
2023,05,14,00,29,17.10
2023,05,14,00,30,17.10
2023,05,14,00,31,17.10
2023,05,14,00,32,17.10
2023,05,14,00,33,17.20
2023,05,14,00,34,17.20
2023,05,14,00,35,17.20
2023,05,14,00,36,17.20
2023,05,14,00,37,17.20
2023,05,14,00,38,17.20
2023,05,14,00,39,17.30
2023,05,14,00,40,17.30
2023,05,14,00,41,17.30
2023,05,14,00,42,17.30
2023,05,14,00,43,17.30
2023,05,14,00,44,17.30
2023,05,14,00,45,17.30
2023,05,14,00,46,17.30
2023,05,14,00,47,17.30
2023,05,14,00,48,17.30
2023,05,14,00,49,17.40
2023,05,14,00,50,17.40
2023,05,14,00,51,17.40
2023,05,14,00,52,17.40
2023,05,14,00,53,17.40
2023,05,14,00,54,17.30
2023,05,14,00,55,17.30
2023,05,14,00,56,17.30
2023,05,14,00,57,17.20
2023,05,14,00,58,17.20
2023,05,14,00,59,17.20
2023,05,14,01,00,17.10
2023,05,14,01,01,17.10
2023,05,14,01,02,17.00
2023,05,14,01,03,16.90
2023,05,14,01,04,16.90
2023,05,14,01,05,16.90
2023,05,14,01,06,16.80
2023,05,14,01,07,16.70
2023,05,14,01,08,16.70
2023,05,14,01,09,16.60
2023,05,14,01,10,16.60
2023,05,14,01,11,16.60
2023,05,14,01,12,16.60
2023,05,14,01,13,16.70
2023,05,14,01,14,16.80
2023,05,14,01,15,16.80
2023,05,14,01,16,16.90
2023,05,14,01,17,17.00
2023,05,14,01,18,17.10
2023,05,14,01,19,17.20
2023,05,14,01,20,17.30
2023,05,14,01,21,17.30
2023,05,14,01,22,17.40
2023,05,14,01,23,17.50
2023,05,14,01,24,17.50
2023,05,14,01,25,17.60
2023,05,14,01,26,17.60
2023,05,14,01,27,17.70
2023,05,14,01,28,17.70
2023,05,14,01,29,17.70
2023,05,14,01,30,17.60
2023,05,14,01,31,17.60
2023,05,14,01,32,17.60
2023,05,14,01,33,17.60
2023,05,14,01,34,17.60
2023,05,14,01,35,17.50
2023,05,14,01,36,17.50
2023,05,14,01,37,17.40
2023,05,14,01,38,17.40
2023,05,14,01,39,17.40
2023,05,14,01,40,17.20
2023,05,14,01,41,16.90
2023,05,14,01,42,16.70
2023,05,14,01,43,16.40
2023,05,14,01,44,16.20
2023,05,14,01,45,16.00
2023,05,14,01,46,15.90
2023,05,14,01,47,15.80
2023,05,14,01,48,15.80
2023,05,14,01,49,15.80
2023,05,14,01,50,15.70
2023,05,14,01,51,15.70
2023,05,14,01,52,15.70
2023,05,14,01,53,15.60
2023,05,14,01,54,15.60
2023,05,14,01,55,15.60
2023,05,14,01,56,15.60
2023,05,14,01,57,15.60
2023,05,14,01,58,15.60
2023,05,14,01,59,15.60
2023,05,14,02,00,15.60
2023,05,14,02,01,15.60
2023,05,14,02,02,15.60
2023,05,14,02,03,15.60
2023,05,14,02,04,15.60
2023,05,14,02,05,15.60
2023,05,14,02,06,15.60
2023,05,14,02,07,15.60
2023,05,14,02,08,15.60
2023,05,14,02,09,15.60
2023,05,14,02,10,15.60
2023,05,14,02,11,15.60
2023,05,14,02,12,15.60
2023,05,14,02,13,15.60
2023,05,14,02,14,15.60
2023,05,14,02,15,15.50
2023,05,14,02,16,15.50
2023,05,14,02,17,15.50
2023,05,14,02,18,15.50
2023,05,14,02,19,15.50
2023,05,14,02,20,15.50
2023,05,14,02,21,15.50
2023,05,14,02,22,15.50
2023,05,14,02,23,15.40
2023,05,14,02,24,15.40
2023,05,14,02,25,15.40
2023,05,14,02,26,15.30
2023,05,14,02,27,15.30
2023,05,14,02,28,15.30
2023,05,14,02,29,15.30
2023,05,14,02,30,15.20
2023,05,14,02,31,15.20
2023,05,14,02,32,15.10
2023,05,14,02,33,15.10
2023,05,14,02,34,15.00
2023,05,14,02,35,15.00
2023,05,14,02,36,15.00
2023,05,14,02,37,15.00
2023,05,14,02,38,15.00
2023,05,14,02,39,15.00
2023,05,14,02,40,15.00
2023,05,14,02,41,15.00
2023,05,14,02,42,15.00
2023,05,14,02,43,15.00
2023,05,14,02,44,15.00
2023,05,14,02,45,15.00
2023,05,14,02,46,15.00
2023,05,14,02,47,14.90
2023,05,14,02,48,14.90
2023,05,14,02,49,15.00
2023,05,14,02,50,15.00
2023,05,14,02,51,15.00
2023,05,14,02,52,15.00
2023,05,14,02,53,15.00
2023,05,14,02,54,15.00
2023,05,14,02,55,15.10
2023,05,14,02,56,15.10
2023,05,14,02,57,15.10
2023,05,14,02,58,15.10
2023,05,14,02,59,15.10
2023,05,14,03,00,15.10
2023,05,14,03,01,15.10
2023,05,14,03,02,15.10
2023,05,14,03,06,15.10
2023,05,14,03,07,15.10
2023,05,14,03,08,15.10
2023,05,14,03,09,15.10
2023,05,14,03,10,15.10
2023,05,14,03,11,15.10
2023,05,14,03,12,15.10
2023,05,14,03,13,15.10
2023,05,14,03,14,15.10
2023,05,14,03,15,15.20
2023,05,14,03,16,15.20
2023,05,14,03,17,15.20
2023,05,14,03,18,15.20
2023,05,14,03,19,15.20
2023,05,14,03,20,15.20
2023,05,14,03,21,15.20
2023,05,14,03,22,15.20
2023,05,14,03,23,15.20
2023,05,14,03,24,15.30
2023,05,14,03,25,15.30
2023,05,14,03,26,15.30
2023,05,14,03,27,15.40
2023,05,14,03,28,15.40
2023,05,14,03,29,15.40
2023,05,14,03,30,15.50
2023,05,14,03,31,15.50
2023,05,14,03,32,15.50
2023,05,14,03,33,15.60
2023,05,14,03,34,15.60
2023,05,14,03,35,15.70
2023,05,14,03,36,15.70
2023,05,14,03,37,15.70
2023,05,14,03,38,15.60
2023,05,14,03,39,15.50
2023,05,14,03,40,15.50
2023,05,14,03,41,15.50
2023,05,14,03,42,15.60
2023,05,14,03,43,15.70
2023,05,14,03,44,15.90
2023,05,14,03,45,16.00
2023,05,14,03,46,16.00
2023,05,14,03,47,16.00
2023,05,14,03,48,16.00
2023,05,14,03,49,15.90
2023,05,14,03,50,15.80
2023,05,14,03,51,15.80
2023,05,14,03,52,15.70
2023,05,14,03,53,15.60
2023,05,14,03,54,15.50
2023,05,14,03,55,15.40
2023,05,14,03,56,15.40
2023,05,14,03,57,15.40
2023,05,14,03,58,15.30
2023,05,14,03,59,15.30
2023,05,14,04,00,15.30
2023,05,14,04,01,15.30
2023,05,14,04,02,15.40
2023,05,14,04,03,15.40
2023,05,14,04,04,15.50
2023,05,14,04,05,15.60
2023,05,14,04,06,15.60
2023,05,14,04,07,15.70
2023,05,14,04,08,15.70
2023,05,14,04,09,15.80
2023,05,14,04,10,15.80
2023,05,14,04,11,15.80
2023,05,14,04,12,15.80
2023,05,14,04,13,15.90
2023,05,14,04,14,15.90
2023,05,14,04,15,16.00
2023,05,14,04,16,16.10
2023,05,14,04,17,16.40
2023,05,14,04,18,16.70
2023,05,14,04,19,17.00
2023,05,14,04,20,17.30
2023,05,14,04,21,17.50
2023,05,14,04,22,17.70
2023,05,14,04,23,17.80
2023,05,14,04,24,17.90
2023,05,14,04,25,18.00
2023,05,14,04,26,18.10
2023,05,14,04,27,18.10
2023,05,14,04,28,18.20
2023,05,14,04,29,18.20
2023,05,14,04,30,18.20
2023,05,14,04,31,18.20
2023,05,14,04,32,18.20
2023,05,14,04,33,18.20
2023,05,14,04,34,18.20
2023,05,14,04,35,18.20
2023,05,14,04,36,18.20
2023,05,14,04,37,18.20
2023,05,14,04,38,18.20
2023,05,14,04,39,18.20
2023,05,14,04,40,18.20
2023,05,14,04,41,18.20
2023,05,14,04,42,18.20
2023,05,14,04,43,18.20
2023,05,14,04,44,18.20
2023,05,14,04,45,18.20
2023,05,14,04,46,18.20
2023,05,14,04,47,18.20
2023,05,14,04,48,18.10
2023,05,14,04,49,18.10
2023,05,14,04,50,18.10
2023,05,14,04,51,18.10
2023,05,14,04,52,18.00
2023,05,14,04,53,18.00
2023,05,14,04,54,17.90
2023,05,14,04,55,17.80
2023,05,14,04,56,17.70
2023,05,14,04,57,17.50
2023,05,14,04,58,17.20
2023,05,14,04,59,16.80
2023,05,14,05,00,16.40
2023,05,14,05,01,16.10
2023,05,14,05,02,15.80
2023,05,14,05,03,15.60
2023,05,14,05,04,15.50
2023,05,14,05,05,15.40
2023,05,14,05,06,15.30
2023,05,14,05,07,15.20
2023,05,14,05,08,15.10
2023,05,14,05,09,15.00
2023,05,14,05,10,15.00
2023,05,14,05,11,15.00
2023,05,14,05,12,15.00
2023,05,14,05,13,15.00
2023,05,14,05,14,15.00
2023,05,14,05,15,15.00
2023,05,14,05,16,15.00
2023,05,14,05,17,15.00
2023,05,14,05,18,15.00
2023,05,14,05,19,15.00
2023,05,14,05,20,15.00
2023,05,14,05,21,14.90
2023,05,14,05,22,14.90
2023,05,14,05,23,14.90
2023,05,14,05,24,14.90
2023,05,14,05,25,14.90
2023,05,14,05,26,14.80
2023,05,14,05,27,14.80
2023,05,14,05,28,14.70
2023,05,14,05,29,14.70
2023,05,14,05,30,14.70
2023,05,14,05,31,14.60
2023,05,14,05,32,14.60
2023,05,14,05,33,14.60
2023,05,14,05,34,14.60
2023,05,14,05,35,14.60
2023,05,14,05,36,14.60
2023,05,14,05,37,14.60
2023,05,14,05,38,14.60
2023,05,14,05,39,14.60
2023,05,14,05,40,14.60
2023,05,14,05,41,14.60
2023,05,14,05,42,14.60
2023,05,14,05,43,14.60
2023,05,14,05,44,14.60
2023,05,14,05,45,14.60
2023,05,14,05,46,14.60
2023,05,14,05,47,14.60
2023,05,14,05,48,14.60
2023,05,14,05,49,14.60
2023,05,14,05,50,14.50
2023,05,14,05,51,14.50
2023,05,14,05,52,14.40
2023,05,14,05,53,14.40
2023,05,14,05,54,14.30
2023,05,14,05,55,14.30
2023,05,14,05,56,14.20
2023,05,14,05,57,14.20
2023,05,14,05,58,14.20
2023,05,14,05,59,14.10
2023,05,14,06,00,14.10
2023,05,14,06,01,14.10
2023,05,14,06,02,14.10
2023,05,14,06,03,14.10
2023,05,14,06,04,14.10
2023,05,14,06,05,14.10
2023,05,14,06,06,14.10
2023,05,14,06,07,14.10
2023,05,14,06,08,14.10
2023,05,14,06,09,14.10
2023,05,14,06,10,14.10
2023,05,14,06,11,14.10
2023,05,14,06,12,14.20
2023,05,14,06,13,14.20
2023,05,14,06,14,14.20
2023,05,14,06,15,14.20
2023,05,14,06,16,14.30
2023,05,14,06,17,14.40
2023,05,14,06,18,14.40
2023,05,14,06,19,14.50
2023,05,14,06,20,14.60
2023,05,14,06,21,14.60
2023,05,14,06,22,14.70
2023,05,14,06,23,14.70
2023,05,14,06,24,14.70
2023,05,14,06,25,14.80
2023,05,14,06,26,14.80
2023,05,14,06,27,14.90
2023,05,14,06,28,15.00
2023,05,14,06,29,15.10
2023,05,14,06,30,15.20
2023,05,14,06,31,15.30
2023,05,14,06,32,15.40
2023,05,14,06,33,15.60
2023,05,14,06,34,15.70
2023,05,14,06,35,15.70
2023,05,14,06,36,15.80
2023,05,14,06,37,15.90
2023,05,14,06,38,15.90
2023,05,14,06,39,16.00
2023,05,14,06,40,16.10
2023,05,14,06,41,16.10
2023,05,14,06,42,16.20
2023,05,14,06,43,16.20
2023,05,14,06,44,16.20
2023,05,14,06,45,16.30
2023,05,14,06,46,16.30
2023,05,14,06,47,16.30
2023,05,14,06,48,16.40
2023,05,14,06,49,16.50
2023,05,14,06,50,16.60
2023,05,14,06,51,16.60
2023,05,14,06,52,16.70
2023,05,14,06,53,16.70
2023,05,14,06,54,16.80
2023,05,14,06,55,16.90
2023,05,14,06,56,17.00
2023,05,14,06,57,17.00
2023,05,14,06,58,17.10
2023,05,14,06,59,17.20
2023,05,14,07,00,17.20
2023,05,14,07,01,17.30
2023,05,14,07,02,17.40
2023,05,14,07,03,17.50
2023,05,14,07,04,17.50
2023,05,14,07,05,17.60
2023,05,14,07,06,17.70
2023,05,14,07,07,17.70
2023,05,14,07,08,17.80
2023,05,14,07,09,17.80
2023,05,14,07,10,17.90
2023,05,14,07,11,17.90
2023,05,14,07,12,18.00
2023,05,14,07,13,18.10
2023,05,14,07,14,18.20
2023,05,14,07,15,18.30
2023,05,14,07,16,18.30
2023,05,14,07,17,18.30
2023,05,14,07,18,18.40
2023,05,14,07,19,18.40
2023,05,14,07,20,18.40
2023,05,14,07,21,18.40
2023,05,14,07,22,18.50
2023,05,14,07,23,18.50
2023,05,14,07,24,18.60
2023,05,14,07,25,18.60
2023,05,14,07,26,18.70
2023,05,14,07,27,18.70
2023,05,14,07,28,18.70
2023,05,14,07,29,18.80
2023,05,14,07,30,18.80
2023,05,14,07,31,18.80
2023,05,14,07,32,18.80
2023,05,14,07,33,18.80
2023,05,14,07,34,18.80
2023,05,14,07,35,18.90
2023,05,14,07,36,18.90
2023,05,14,07,37,18.90
2023,05,14,07,38,18.90
2023,05,14,07,39,19.00
2023,05,14,07,40,19.00
2023,05,14,07,41,19.10
2023,05,14,07,42,19.10
2023,05,14,07,43,19.20
2023,05,14,07,44,19.20
2023,05,14,07,45,19.30
2023,05,14,07,46,19.40
2023,05,14,07,47,19.50
2023,05,14,07,48,19.60
2023,05,14,07,49,19.70
2023,05,14,07,50,19.80
2023,05,14,07,51,19.80
2023,05,14,07,52,20.00
2023,05,14,07,53,20.10
2023,05,14,07,54,20.20
2023,05,14,07,55,20.30
2023,05,14,07,56,20.40
2023,05,14,07,57,20.40
2023,05,14,07,58,20.50
2023,05,14,07,59,20.50
2023,05,14,08,00,20.60
2023,05,14,08,01,20.70
2023,05,14,08,02,20.70
2023,05,14,08,03,20.80
2023,05,14,08,04,20.90
2023,05,14,08,05,21.00
2023,05,14,08,06,21.00
2023,05,14,08,07,21.10
2023,05,14,08,08,21.20
2023,05,14,08,09,21.20
2023,05,14,08,10,21.20
2023,05,14,08,11,21.20
2023,05,14,08,12,21.20
2023,05,14,08,13,21.30
2023,05,14,08,14,21.30
2023,05,14,08,15,21.40
2023,05,14,08,16,21.40
2023,05,14,08,17,21.50
2023,05,14,08,18,21.50
2023,05,14,08,19,21.60
2023,05,14,08,20,21.60
2023,05,14,08,21,21.60
2023,05,14,08,22,21.50
2023,05,14,08,23,21.40
2023,05,14,08,24,21.30
2023,05,14,08,25,20.90
2023,05,14,08,26,20.50
2023,05,14,08,27,20.10
2023,05,14,08,28,19.70
2023,05,14,08,29,19.50
2023,05,14,08,30,19.30
2023,05,14,08,31,19.10
2023,05,14,08,32,18.90
2023,05,14,08,33,18.80
2023,05,14,08,34,18.90
2023,05,14,08,35,19.00
2023,05,14,08,36,19.20
2023,05,14,08,37,19.30
2023,05,14,08,38,19.50
2023,05,14,08,39,19.60
2023,05,14,08,40,19.70
2023,05,14,08,41,20.00
2023,05,14,08,42,20.20
2023,05,14,08,43,20.40
2023,05,14,08,44,20.50
2023,05,14,08,45,20.70
2023,05,14,08,46,20.90
2023,05,14,08,47,21.00
2023,05,14,08,48,21.20
2023,05,14,08,49,21.30
2023,05,14,08,50,21.50
2023,05,14,08,51,21.60
2023,05,14,08,52,21.80
2023,05,14,08,53,21.90
2023,05,14,08,54,22.00
2023,05,14,08,55,22.00
2023,05,14,08,56,21.70
2023,05,14,08,57,21.30
2023,05,14,08,58,21.00
2023,05,14,08,59,20.80
2023,05,14,09,00,20.60
2023,05,14,09,01,20.60
2023,05,14,09,02,20.60
2023,05,14,09,03,20.60
2023,05,14,09,04,20.80
2023,05,14,09,05,21.00
2023,05,14,09,06,21.20
2023,05,14,09,07,21.40
2023,05,14,09,08,21.60
2023,05,14,09,09,21.80
2023,05,14,09,10,22.00
2023,05,14,09,11,22.20
2023,05,14,09,12,22.40
2023,05,14,09,13,22.50
2023,05,14,09,14,22.70
2023,05,14,09,15,22.80
2023,05,14,09,16,22.90
2023,05,14,09,17,22.90
2023,05,14,09,18,23.00
2023,05,14,09,19,23.00
2023,05,14,09,20,23.10
2023,05,14,09,21,23.10
2023,05,14,09,22,23.10
2023,05,14,09,23,23.10
2023,05,14,09,24,23.10
2023,05,14,09,25,23.00
2023,05,14,09,26,23.00
2023,05,14,09,27,22.90
2023,05,14,09,28,22.90
2023,05,14,09,29,22.90
2023,05,14,09,30,22.90
2023,05,14,09,31,22.90
2023,05,14,09,32,22.90
2023,05,14,09,33,23.00
2023,05,14,09,34,23.00
2023,05,14,09,35,23.10
2023,05,14,09,36,23.10
2023,05,14,09,37,23.00
2023,05,14,09,38,23.00
2023,05,14,09,39,23.00
2023,05,14,09,40,22.90
2023,05,14,09,41,22.90
2023,05,14,09,42,22.90
2023,05,14,09,43,22.90
2023,05,14,09,44,22.90
2023,05,14,09,45,22.90
2023,05,14,09,46,22.90
2023,05,14,09,47,22.90
2023,05,14,09,48,23.00
2023,05,14,09,49,23.00
2023,05,14,09,50,23.00
2023,05,14,09,51,23.10
2023,05,14,09,52,23.20
2023,05,14,09,53,23.30
2023,05,14,09,54,23.40
2023,05,14,09,55,23.40
2023,05,14,09,56,23.40
2023,05,14,09,57,23.50
2023,05,14,09,58,23.50
2023,05,14,09,59,23.40
2023,05,14,10,00,23.40
2023,05,14,10,01,23.40
2023,05,14,10,02,23.40
2023,05,14,10,03,23.40
2023,05,14,10,04,23.40
2023,05,14,10,05,23.30
2023,05,14,10,06,23.30
2023,05,14,10,07,23.30
2023,05,14,10,08,23.30
2023,05,14,10,09,23.30
2023,05,14,10,10,23.40
2023,05,14,10,11,23.50
2023,05,14,10,12,23.50
2023,05,14,10,13,23.60
2023,05,14,10,14,23.70
2023,05,14,10,15,23.70
2023,05,14,10,16,23.70
2023,05,14,10,17,23.70
2023,05,14,10,18,23.70
2023,05,14,10,19,23.70
2023,05,14,10,20,23.70
2023,05,14,10,21,23.90
2023,05,14,10,22,24.00
2023,05,14,10,23,24.10
2023,05,14,10,24,24.20
2023,05,14,10,25,24.20
2023,05,14,10,26,24.30
2023,05,14,10,27,24.30
2023,05,14,10,28,24.30
2023,05,14,10,29,24.40
2023,05,14,10,30,24.40
2023,05,14,10,31,24.40
2023,05,14,10,32,24.40
2023,05,14,10,33,24.30
2023,05,14,10,34,24.30
2023,05,14,10,35,24.30
2023,05,14,10,36,24.40
2023,05,14,10,37,24.50
2023,05,14,10,38,24.60
2023,05,14,10,39,24.60
2023,05,14,10,40,24.70
2023,05,14,10,41,24.70
2023,05,14,10,42,24.70
2023,05,14,10,43,24.70
2023,05,14,10,44,24.80
2023,05,14,10,45,24.80
2023,05,14,10,46,24.80
2023,05,14,10,47,24.80
2023,05,14,10,48,24.80
2023,05,14,10,49,24.80
2023,05,14,10,50,24.80
2023,05,14,10,51,24.90
2023,05,14,10,52,24.90
2023,05,14,10,53,24.90
2023,05,14,10,54,24.90
2023,05,14,10,55,24.90
2023,05,14,10,56,24.90
2023,05,14,10,57,24.90
2023,05,14,10,58,25.00
2023,05,14,10,59,24.90
2023,05,14,11,00,24.90
2023,05,14,11,01,25.00
2023,05,14,11,02,25.00
2023,05,14,11,03,25.10
2023,05,14,11,04,25.10
2023,05,14,11,05,25.10
2023,05,14,11,06,25.20
2023,05,14,11,07,25.20
2023,05,14,11,08,25.20
2023,05,14,11,09,25.20
2023,05,14,11,10,25.20
2023,05,14,11,11,25.20
2023,05,14,11,12,25.20
2023,05,14,11,13,25.20
2023,05,14,11,14,25.10
2023,05,14,11,15,25.10
2023,05,14,11,16,25.00
2023,05,14,11,17,24.90
2023,05,14,11,18,24.90
2023,05,14,11,19,24.90
2023,05,14,11,20,24.90
2023,05,14,11,21,24.90
2023,05,14,11,22,25.00
2023,05,14,11,23,25.10
2023,05,14,11,24,25.10
2023,05,14,11,25,25.10
2023,05,14,11,26,25.10
2023,05,14,11,27,25.10
2023,05,14,11,28,25.10
2023,05,14,11,29,25.10
2023,05,14,11,30,25.10
2023,05,14,11,31,25.20
2023,05,14,11,32,25.30
2023,05,14,11,33,25.40
2023,05,14,11,34,25.50
2023,05,14,11,35,25.50
2023,05,14,11,36,25.60
2023,05,14,11,37,25.60
2023,05,14,11,38,25.70
2023,05,14,11,39,25.70
2023,05,14,11,40,25.70
2023,05,14,11,41,25.80
2023,05,14,11,42,25.90
2023,05,14,11,43,26.00
2023,05,14,11,44,26.00
2023,05,14,11,45,26.10
2023,05,14,11,46,26.00
2023,05,14,11,47,26.00
2023,05,14,11,48,26.00
2023,05,14,11,49,26.00
2023,05,14,11,50,26.10
2023,05,14,11,51,26.20
2023,05,14,11,52,26.20
2023,05,14,11,53,26.10
2023,05,14,11,54,26.00
2023,05,14,11,55,25.90
2023,05,14,11,56,26.00
2023,05,14,11,57,26.00
2023,05,14,11,58,26.00
2023,05,14,11,59,26.10
2023,05,14,12,00,26.20
2023,05,14,12,01,26.30
2023,05,14,12,02,26.40
2023,05,14,12,03,26.40
2023,05,14,12,04,26.40
2023,05,14,12,05,26.50
2023,05,14,12,06,26.50
2023,05,14,12,07,26.60
2023,05,14,12,08,26.60
2023,05,14,12,09,26.60
2023,05,14,12,10,26.60
2023,05,14,12,11,26.50
2023,05,14,12,12,26.40
2023,05,14,12,13,26.30
2023,05,14,12,14,26.20
2023,05,14,12,15,26.20
2023,05,14,12,16,26.20
2023,05,14,12,17,26.10
2023,05,14,12,18,26.10
2023,05,14,12,19,26.10
2023,05,14,12,20,26.10
2023,05,14,12,21,26.10
2023,05,14,12,22,26.10
2023,05,14,12,23,26.10
2023,05,14,12,24,26.10
2023,05,14,12,25,26.20
2023,05,14,12,26,26.20
2023,05,14,12,27,26.30
2023,05,14,12,28,26.30
2023,05,14,12,29,26.40
2023,05,14,12,30,26.50
2023,05,14,12,31,26.60
2023,05,14,12,32,26.70
2023,05,14,12,33,26.90
2023,05,14,12,34,27.00
2023,05,14,12,35,27.10
2023,05,14,12,36,27.20
2023,05,14,12,37,27.30
2023,05,14,12,38,27.40
2023,05,14,12,39,27.50
2023,05,14,12,40,27.60
2023,05,14,12,41,27.60
2023,05,14,12,42,27.70
2023,05,14,12,43,27.80
2023,05,14,12,44,27.80
2023,05,14,12,45,27.70
2023,05,14,12,46,27.70
2023,05,14,12,47,27.60
2023,05,14,12,48,27.50
2023,05,14,12,49,27.40
2023,05,14,12,50,27.30
2023,05,14,12,51,27.20
2023,05,14,12,52,27.10
2023,05,14,12,53,27.10
2023,05,14,12,54,27.10
2023,05,14,12,55,27.10
2023,05,14,12,56,27.10
2023,05,14,12,57,27.00
2023,05,14,12,58,27.00
2023,05,14,12,59,27.00
2023,05,14,13,00,27.10
2023,05,14,13,01,27.10
2023,05,14,13,02,27.10
2023,05,14,13,03,27.20
2023,05,14,13,04,27.20
2023,05,14,13,05,27.20
2023,05,14,13,06,27.20
2023,05,14,13,07,27.20
2023,05,14,13,08,27.20
2023,05,14,13,09,27.20
2023,05,14,13,10,27.30
2023,05,14,13,11,27.30
2023,05,14,13,12,27.30
2023,05,14,13,13,27.40
2023,05,14,13,14,27.40
2023,05,14,13,15,27.40
2023,05,14,13,16,27.50
2023,05,14,13,17,27.50
2023,05,14,13,18,27.60
2023,05,14,13,19,27.60
2023,05,14,13,20,27.70
2023,05,14,13,21,27.70
2023,05,14,13,22,27.70
2023,05,14,13,23,27.70
2023,05,14,13,24,27.70
2023,05,14,13,25,27.70
2023,05,14,13,26,27.70
2023,05,14,13,27,27.70
2023,05,14,13,28,27.70
2023,05,14,13,29,27.70
2023,05,14,13,30,27.60
2023,05,14,13,31,27.60
2023,05,14,13,32,27.60
2023,05,14,13,33,27.60
2023,05,14,13,34,27.60
2023,05,14,13,35,27.60
2023,05,14,13,36,27.70
2023,05,14,13,37,27.70
2023,05,14,13,38,27.70
2023,05,14,13,39,27.80
2023,05,14,13,40,27.80
2023,05,14,13,41,27.80
2023,05,14,13,42,27.90
2023,05,14,13,43,27.90
2023,05,14,13,44,27.90
2023,05,14,13,45,27.90
2023,05,14,13,46,27.90
2023,05,14,13,47,28.00
2023,05,14,13,48,28.00
2023,05,14,13,49,28.00
2023,05,14,13,50,27.90
2023,05,14,13,51,27.90
2023,05,14,13,52,27.90
2023,05,14,13,53,27.90
2023,05,14,13,54,27.80
2023,05,14,13,55,27.80
2023,05,14,13,56,27.80
2023,05,14,13,57,27.70
2023,05,14,13,58,27.70
2023,05,14,13,59,27.70
2023,05,14,14,00,27.70
2023,05,14,14,01,27.70
2023,05,14,14,02,27.80
2023,05,14,14,03,27.80
2023,05,14,14,04,27.90
2023,05,14,14,05,28.10
2023,05,14,14,06,28.20
2023,05,14,14,07,28.30
2023,05,14,14,08,28.50
2023,05,14,14,09,28.60
2023,05,14,14,10,28.60
2023,05,14,14,11,28.70
2023,05,14,14,12,28.70
2023,05,14,14,13,28.80
2023,05,14,14,14,28.80
2023,05,14,14,15,28.90
2023,05,14,14,16,28.90
2023,05,14,14,17,28.90
2023,05,14,14,18,28.90
2023,05,14,14,19,29.00
2023,05,14,14,20,29.00
2023,05,14,14,21,29.10
2023,05,14,14,22,29.10
2023,05,14,14,23,29.10
2023,05,14,14,24,29.10
2023,05,14,14,25,29.10
2023,05,14,14,26,29.10
2023,05,14,14,27,29.20
2023,05,14,14,28,29.20
2023,05,14,14,29,29.30
2023,05,14,14,30,29.40
2023,05,14,14,31,29.40
2023,05,14,14,32,29.50
2023,05,14,14,33,29.60
2023,05,14,14,34,29.60
2023,05,14,14,35,29.60
2023,05,14,14,36,29.60
2023,05,14,14,37,29.60
2023,05,14,14,38,29.60
2023,05,14,14,39,29.60
2023,05,14,14,40,29.50
2023,05,14,14,41,29.50
2023,05,14,14,42,29.50
2023,05,14,14,43,29.50
2023,05,14,14,44,29.60
2023,05,14,14,45,29.70
2023,05,14,14,46,29.70
2023,05,14,14,47,29.70
2023,05,14,14,48,29.70
2023,05,14,14,49,29.70
2023,05,14,14,50,29.70
2023,05,14,14,51,29.70
2023,05,14,14,52,29.70
2023,05,14,14,53,29.70
2023,05,14,14,54,29.70
2023,05,14,14,55,29.70
2023,05,14,14,56,29.70
2023,05,14,14,57,29.70
2023,05,14,14,58,29.70
2023,05,14,14,59,29.80
2023,05,14,15,00,29.80
2023,05,14,15,01,29.80
2023,05,14,15,02,29.80
2023,05,14,15,03,29.90
2023,05,14,15,04,29.90
2023,05,14,15,05,30.00
2023,05,14,15,06,30.00
2023,05,14,15,07,30.10
2023,05,14,15,08,30.10
2023,05,14,15,09,30.10
2023,05,14,15,10,30.10
2023,05,14,15,11,30.10
2023,05,14,15,12,30.10
2023,05,14,15,13,30.10
2023,05,14,15,14,30.00
2023,05,14,15,15,30.00
2023,05,14,15,16,29.90
2023,05,14,15,17,29.80
2023,05,14,15,18,29.80
2023,05,14,15,19,29.80
2023,05,14,15,20,29.80
2023,05,14,15,21,29.90
2023,05,14,15,22,29.90
2023,05,14,15,23,30.00
2023,05,14,15,24,30.10
2023,05,14,15,25,30.20
2023,05,14,15,26,30.30
2023,05,14,15,27,30.30
2023,05,14,15,28,30.40
2023,05,14,15,29,30.40
2023,05,14,15,30,30.50
2023,05,14,15,31,30.50
2023,05,14,15,32,30.60
2023,05,14,15,33,30.60
2023,05,14,15,34,30.50
2023,05,14,15,35,30.40
2023,05,14,15,36,30.40
2023,05,14,15,37,30.40
2023,05,14,15,38,30.40
2023,05,14,15,39,30.50
2023,05,14,15,40,30.50
2023,05,14,15,41,30.60
2023,05,14,15,42,30.60
2023,05,14,15,43,30.70
2023,05,14,15,44,30.80
2023,05,14,15,45,30.80
2023,05,14,15,46,30.80
2023,05,14,15,47,30.70
2023,05,14,15,48,30.70
2023,05,14,15,49,30.80
2023,05,14,15,50,30.80
2023,05,14,15,51,30.80
2023,05,14,15,52,30.80
2023,05,14,15,53,30.80
2023,05,14,15,54,30.80
2023,05,14,15,55,30.80
2023,05,14,15,56,30.80
2023,05,14,15,57,30.80
2023,05,14,15,58,30.80
2023,05,14,15,59,30.80
2023,05,14,16,00,30.80
2023,05,14,16,01,30.70
2023,05,14,16,02,30.70
2023,05,14,16,03,30.70
2023,05,14,16,04,30.70
2023,05,14,16,05,30.70
2023,05,14,16,06,30.80
2023,05,14,16,07,30.80
2023,05,14,16,08,30.70
2023,05,14,16,09,30.70
2023,05,14,16,10,30.70
2023,05,14,16,11,30.70
2023,05,14,16,12,30.70
2023,05,14,16,13,30.70
2023,05,14,16,14,30.70
2023,05,14,16,15,30.70
2023,05,14,16,16,30.70
2023,05,14,16,17,30.70
2023,05,14,16,18,30.70
2023,05,14,16,19,30.80
2023,05,14,16,20,30.80
2023,05,14,16,21,30.90
2023,05,14,16,22,30.90
2023,05,14,16,23,31.00
2023,05,14,16,24,31.10
2023,05,14,16,25,31.20
2023,05,14,16,26,31.20
2023,05,14,16,27,31.10
2023,05,14,16,28,31.10
2023,05,14,16,29,30.90
2023,05,14,16,30,30.70
2023,05,14,16,31,30.60
2023,05,14,16,32,30.50
2023,05,14,16,33,30.40
2023,05,14,16,34,30.40
2023,05,14,16,35,30.50
2023,05,14,16,36,30.50
2023,05,14,16,37,30.60
2023,05,14,16,38,30.70
2023,05,14,16,39,30.80
2023,05,14,16,40,30.80
2023,05,14,16,41,31.00
2023,05,14,16,42,31.00
2023,05,14,16,43,31.10
2023,05,14,16,44,31.20
2023,05,14,16,45,31.20
2023,05,14,16,46,31.20
2023,05,14,16,47,31.10
2023,05,14,16,48,31.10
2023,05,14,16,49,31.10
2023,05,14,16,50,31.20
2023,05,14,16,51,31.10
2023,05,14,16,52,31.10
2023,05,14,16,53,31.10
2023,05,14,16,54,31.10
2023,05,14,16,55,31.10
2023,05,14,16,56,31.10
2023,05,14,16,57,31.20
2023,05,14,16,58,31.20
2023,05,14,16,59,31.30
2023,05,14,17,00,31.40
2023,05,14,17,01,31.50
2023,05,14,17,02,31.60
2023,05,14,17,03,31.70
2023,05,14,17,04,31.70
2023,05,14,17,05,31.80
2023,05,14,17,06,31.80
2023,05,14,17,07,31.80
2023,05,14,17,08,31.70
2023,05,14,17,09,31.70
2023,05,14,17,10,31.70
2023,05,14,17,11,31.70
2023,05,14,17,12,31.70
2023,05,14,17,13,31.70
2023,05,14,17,14,31.70
2023,05,14,17,15,31.70
2023,05,14,17,16,31.70
2023,05,14,17,17,31.70
2023,05,14,17,18,31.60
2023,05,14,17,19,31.60
2023,05,14,17,20,31.50
2023,05,14,17,21,31.40
2023,05,14,17,22,31.40